Hourly Data Report for March 09, 2012

All times are specified in Local Standard Time (LST). Add 1 hour to adjust for Daylight Saving Time where and when it is observed.

Metadata including Station Name, Province, Latitude, Longitude, Elevation, Climate ID, WMO ID, TC ID
ST-JOVITE
QUEBEC
Latitude: 46°04'49.000" N Longitude: 74°33'21.000" W Elevation: 238.50 m
Climate ID: 703GDKB WMO ID: 71376 TC ID: WJT
Hourly Data Report for March 9, 2012
Temp Definition
°C

Dew Point Temp Definition
°C

Rel Hum Definition
%

Wind Dir Definition
10's deg
Wind Spd Definition
km/h

Visibility Definition
km

Stn Press Definition
kPa

Hmdx Definition

Wind Chill Definition

Weather Definition

TIME
00:00 -2.8 -4.3 89 32 7 97.94 -6 LegendNANA
01:00 -4.7 -6.7 86 30 7 98.16 -8 LegendNANA
02:00 -5.4 -7.7 84 30 9 98.24 -9 LegendNANA
03:00 -6.4 -8.8 83 32 7 98.39 -10 LegendNANA
04:00 -7.0 -9.3 84 30 7 98.49 -11 LegendNANA
05:00 -7.1 -9.0 86 35 6 98.63 -10 LegendNANA
06:00 -8.3 -10.0 88 1 4 98.70 -10 LegendNANA
07:00 -7.9 -9.7 87 32 4 98.75 -10 LegendNANA
08:00 -7.2 -10.0 80 29 6 98.81 -10 LegendNANA
09:00 -6.0 -10.8 69 27 7 98.86 -9 LegendNANA
10:00 -4.9 -11.7 59 29 6 98.87 -8 LegendNANA
11:00 -3.7 -12.2 52 29 6 98.83 -6 LegendNANA
12:00 -3.1 -12.0 50 25 6 98.83 -6 LegendNANA
13:00 -1.3 -11.3 46 25 6 98.82 -4 LegendNANA
14:00 -1.7 -10.8 50 21 7 98.81 -4 LegendNANA
15:00 -1.9 -9.9 54 20 9 98.83 -5 LegendNANA
16:00 -1.5 -7.0 66 17 6 98.85 -4 LegendNANA
17:00 -2.8 -7.9 68 17 2 98.88 -4 LegendNANA
18:00 -3.8 -6.6 81   0 98.96 LegendNANA
19:00 -4.2 -5.9 88   0 99.02 LegendNANA
20:00 -3.9 -5.7 87 6 2 99.08 -5 LegendNANA
21:00 -5.1 -6.2 92 5 2 99.13 -6 LegendNANA
22:00 -7.1 -7.6 96 1 2 99.13 -8 LegendNANA
23:00 -7.5 -8.0 96 36 6 99.21 -11 LegendNANA

Notes on Data Quality.

Legend
  • E = Estimated
  • M = Missing
  • NA = Not Available
  • ‡ = Partner data that is not subject to review by the National Climate Archives